* Astronomy

Members Login
Username 
 
Password 
    Remember Me  
Post Info TOPIC: GSLV Stage 3 RB Re-entry


L

Posts: 131433
Date:
RE: GSLV Stage 3 RB Re-entry
Permalink  
 


Update:
Predicted Decay Time    24th November 2007 @ 18:26:00 GMT  ± 6 Hours
Predicted Decay Location    10.6° S, 67.2° E
Inclination    19.2°
Revolution Number    4560

__________________


L

Posts: 131433
Date:
Permalink  
 

Update:
Predicted Decay Time    24th November 2007 @ 23:08:00 GMT  ± 24 Hours
Predicted Decay Location    17° S, 22.6° E
Inclination    19.3°
Revolution Number    4562

__________________


L

Posts: 131433
Date:
Permalink  
 

A GSLV Stage 3 Rocket Body that was launched on September 20th 2004 from the Sriharikota launch centre, for the GSAT-3/Edusat mission, is predicted to re-enter the Earths atmosphere on 25th November 2007 @ 03:35 UTC ± 21 hours.

gslv
Expand (63kb, 630 x 390)

Predicted Decay Location 13.1° S, 165.9° E
Inclination 19.3°
Revolution Number 4570


TLE Data
GSLV R/B
1 28418U 04036B 07325.68604901 .20800911 -47295-4 77499-3 0 6738
2 28418 019.3306 213.0466 1287825 148.7318 219.8358 13.50961774 45147
1 28418U 04036B 07325.53805564 .19982390 -46424-4 81888-3 0 6729
2 28418 019.3279 213.8785 1312783 147.2064 221.7009 13.44635646 45124
1 28418U 04036B 07324.96060833 .16506692 -43452-4 71504-3 0 6699
2 28418 019.3094 217.2003 1407229 141.4297 329.0492 13.22725933 45048
1 28418U 04036B 07324.33190535 .16135359 -40947-4 82354-3 0 6681
2 28418 019.2960 220.5385 1493929 135.0083 239.4097 13.02026900 44964
1 28418U 04036B 07323.86958847 .14359313 -39080-4 72093-3 0 6676
2 28418 019.3125 222.8549 1560387 131.0789 244.5380 12.87085706 44904


-- Edited by Blobrana at 18:21, 2007-11-23

__________________
Page 1 of 1  sorted by
 
Quick Reply

Please log in to post quick replies.



Create your own FREE Forum
Report Abuse
Powered by ActiveBoard